Weather History for GMMX - July, 2013

Change the Weather History Date:

Tuesday, July 9, 2013

  Actual Average Record
Temperature  
Mean Temperature 92 °F -  
Max Temperature 107 °F 95 °F 107 °F (2006)
Min Temperature 76 °F 66 °F 62 °F (2004)
Cooling Degree Days 26    
Growing Degree Days 42 (Base 50)    
Moisture  
Dew Point 52 °F    
Average Humidity 27    
Maximum Humidity 47    
Minimum Humidity 8    
Precipitation  
Precipitation 0.00 in 0.00 in - ()
Sea Level Pressure  
Sea Level Pressure 29.94 in    
Wind  
Wind Speed 6 mph ()    
Max Wind Speed 17 mph    
Max Gust Speed 26 mph    
Visibility 6.2 miles    
Events Thunderstorm    
Averages and records for this station are not official NWS values.
T = Trace of Precipitation, MM = Missing Value Source: Averaged Metar Reports

Daily Weather History Graph

Daily Weather History Graph

Search for Another Location

Airport or City:

Trip Planner

Search our weather history database for the weather conditions in past years. The results will help you decide how hot, cold, wet, or windy it might be!

Date:

Astronomy

Jul. 09, 2013 Rise Set
Actual Time 5:34 AM WET 7:40 PM WET
Civil Twilight 5:06 AM WET 8:07 PM WET
Nautical Twilight 4:32 AM WET 8:41 PM WET
Astronomical Twilight 3:56 AM WET 9:17 PM WET
Moon 6:38 AM WET (7/9) 8:19 PM WET (7/9)
Length of Visible Light 15h 01m
Length of Day
14h 05m
New Moon, 1% of the Moon is Illuminated
Jul 9
New Moon
Jul 16
First Quarter
Jul 22
Full
Jul 29
Last Quarter
Aug 6
New

Hourly Weather History & Observations

Time (WET) Temp. Heat Index Dew Point Humidity Pressure Visibility Wind Dir Wind Speed Gust Speed Precip Events Conditions
12:00 AM 83 °F - 54 °F 27% 29.90 in 6 mi SW 6.9 mph - -   Clear
12:00 AM 82.4 °F 81.7 °F 55.4 °F 39% 29.98 in - SW 6.9 mph - N/A   Clear
12:30 AM 82.4 °F 81.7 °F 55.4 °F 39% 29.98 in - SW 9.2 mph - N/A   Clear
1:00 AM 82.4 °F 81.7 °F 55.4 °F 39% 29.98 in - SW 8.1 mph - N/A   Clear
1:30 AM 82.4 °F 81.4 °F 53.6 °F 37% 29.98 in - SW 6.9 mph - N/A   Clear
2:00 AM 80.6 °F 80.3 °F 53.6 °F 39% 29.98 in - Variable 2.3 mph - N/A   Clear
2:30 AM 78.8 °F - 55.4 °F 44% 29.98 in - SW 3.5 mph - N/A   Clear
3:00 AM 81 °F - 53 °F 27% 29.88 in 6 mi SSW 5.8 mph - -   Clear
3:00 AM 80.6 °F 80.3 °F 53.6 °F 39% 29.98 in - SSW 4.6 mph - N/A   Clear
3:30 AM 78.8 °F - 55.4 °F 44% 29.95 in - West 4.6 mph - N/A   Clear
4:00 AM 77.0 °F - 53.6 °F 44% 29.95 in - WSW 2.3 mph - N/A   Clear
4:30 AM 77.0 °F - 53.6 °F 44% 29.95 in 6.2 mi Calm Calm - N/A   Partly Cloudy
5:00 AM 78.8 °F - 53.6 °F 42% 29.98 in 6.2 mi Calm Calm - N/A   Partly Cloudy
5:30 AM 78.8 °F - 53.6 °F 42% 29.98 in 6.2 mi East 4.6 mph - N/A   Partly Cloudy
6:00 AM 77 °F - 54 °F 34% 29.90 in 6 mi East 4.6 mph - -   Scattered Clouds
6:00 AM 77.0 °F - 55.4 °F 47% 29.98 in 6.2 mi East 4.6 mph - N/A   Partly Cloudy
6:30 AM 78.8 °F - 55.4 °F 44% 29.98 in 6.2 mi East 3.5 mph - N/A   Partly Cloudy
7:00 AM 82.4 °F 81.4 °F 53.6 °F 37% 29.98 in 6.2 mi East 3.5 mph - N/A   Partly Cloudy
7:30 AM 84.2 °F 83.0 °F 55.4 °F 37% 29.98 in 6.2 mi East 4.6 mph - N/A   Partly Cloudy
8:00 AM 86.0 °F 84.5 °F 55.4 °F 35% 29.98 in 6.2 mi ENE 4.6 mph - N/A   Partly Cloudy
8:30 AM 89.6 °F 87.3 °F 53.6 °F 29% 29.98 in 6.2 mi NE 3.5 mph - N/A   Scattered Clouds
9:00 AM 92 °F - 51 °F 16% 29.87 in 6 mi ESE 2.3 mph - -   Scattered Clouds
9:00 AM 91.4 °F - 51.8 °F 26% 29.98 in 6.2 mi Variable 2.3 mph - N/A   Scattered Clouds
9:30 AM 95.0 °F - 50.0 °F 22% 29.98 in 6.2 mi Variable 1.2 mph - N/A   Scattered Clouds
10:00 AM 96.8 °F - 50.0 °F 20% 29.98 in 6.2 mi Variable 2.3 mph - N/A   Scattered Clouds
10:30 AM 98.6 °F - 48.2 °F 18% 29.98 in 6.2 mi Variable 2.3 mph - N/A   Scattered Clouds
11:00 AM 98.6 °F - 50.0 °F 19% 29.98 in 6.2 mi Variable 2.3 mph - N/A   Partly Cloudy
11:30 AM 100.4 °F - 50.0 °F 18% 29.98 in 6.2 mi North 5.8 mph - N/A   Partly Cloudy
12:00 PM 101 °F - 50 °F 10% 29.82 in 6 mi North 3.5 mph - -   Scattered Clouds
12:00 PM 102.2 °F - 50.0 °F 17% 29.95 in 6.2 mi Variable 4.6 mph - N/A   Partly Cloudy
12:30 PM 102.2 °F - 51.8 °F 18% 29.95 in 6.2 mi North 5.8 mph - N/A   Partly Cloudy
1:00 PM 104.0 °F - 50.0 °F 16% 29.95 in 6.2 mi NW 6.9 mph - N/A   Partly Cloudy
1:30 PM 105.8 °F - 50.0 °F 15% 29.92 in 6.2 mi WNW 6.9 mph - N/A   Partly Cloudy
2:00 PM 105.8 °F - 50.0 °F 15% 29.92 in 6.2 mi West 11.5 mph - N/A   Partly Cloudy
2:30 PM 105.8 °F - 51.8 °F 17% 29.92 in 6.2 mi West 11.5 mph - N/A   Partly Cloudy
3:00 PM 107 °F - 51 °F 9% 29.76 in 6 mi West 10.4 mph - -   Partly Cloudy
3:00 PM 105.8 °F - 51.8 °F 17% 29.92 in 6.2 mi Variable 11.5 mph - N/A   Partly Cloudy
3:30 PM 107.6 °F - 51.8 °F 16% 29.92 in 6.2 mi West 12.7 mph - N/A   Partly Cloudy
4:00 PM 107.6 °F - 51.8 °F 16% 29.89 in 6.2 mi West 12.7 mph - N/A   Partly Cloudy
4:30 PM 107.6 °F - 50.0 °F 15% 29.89 in 6.2 mi WNW 10.4 mph - N/A   Partly Cloudy
5:00 PM 105.8 °F - 51.8 °F 17% 29.89 in 6.2 mi WNW 11.5 mph - N/A   Partly Cloudy
5:30 PM 105.8 °F - 51.8 °F 17% 29.89 in 6.2 mi WNW 10.4 mph - N/A   Partly Cloudy
6:00 PM 105 °F - 48 °F 8% 29.74 in 6 mi WNW 16.1 mph - -   Partly Cloudy
6:00 PM 105.8 °F - 48.2 °F 14% 29.89 in 6.2 mi WNW 15.0 mph 26.5 mph N/A   Partly Cloudy
6:30 PM 102.2 °F - 46.4 °F 15% 29.89 in 6.2 mi WNW 17.3 mph - N/A   Partly Cloudy
7:00 PM 100.4 °F - 44.6 °F 15% 29.92 in 6.2 mi WNW 16.1 mph - N/A   Partly Cloudy
7:30 PM 98.6 °F - 44.6 °F 16% 29.92 in 6.2 mi West 12.7 mph - N/A   Partly Cloudy
7:33 PM 98.6 °F - 44.6 °F 16% 29.92 in 6.2 mi West 10.4 mph - N/A Thunderstorm Thunderstorm
8:00 PM 96.8 °F - 44.6 °F 17% 29.95 in 6.2 mi WSW 10.4 mph - N/A Thunderstorm Thunderstorm
8:30 PM 96.8 °F - 44.6 °F 17% 29.98 in 6.2 mi SW 13.8 mph - N/A Thunderstorm Thunderstorm
9:00 PM 89.6 °F 88.9 °F 59.0 °F 36% 30.01 in 6.2 mi SE 17.3 mph - N/A Thunderstorm Thunderstorm
9:30 PM 86.0 °F 86.6 °F 62.6 °F 45% 30.01 in 6.2 mi SE 15.0 mph - N/A Thunderstorm Thunderstorm
9:56 PM 86.0 °F 86.1 °F 60.8 °F 43% 30.01 in 6.2 mi SE 13.8 mph - N/A   Partly Cloudy
10:00 PM 86.0 °F 86.1 °F 60.8 °F 43% 30.01 in 6.2 mi SE 13.8 mph - N/A   Partly Cloudy
10:30 PM 87.8 °F 87.1 °F 59.0 °F 38% 30.01 in 6.2 mi SE 13.8 mph - N/A   Partly Cloudy
11:00 PM 89.6 °F 88.1 °F 57.2 °F 33% 29.98 in 6.2 mi ESE 12.7 mph - N/A   Partly Cloudy
11:30 PM 89.6 °F 87.7 °F 55.4 °F 31% 29.98 in 6.2 mi SE 11.5 mph - N/A   Partly Cloudy